Location: Newark
(42.0667°N, 9.0833°E)
Time: 21:54:04
(UTC+00:00)

ISS - Visible Passes

Search period start: 05 December 2019 00:00
Search period end: 15 December 2019 00:00
Orbit: 412 x 421 km, 51.6° (Epoch: 05 December)

Date Brightness Start Highest point End Pass type
(mag) Time Alt. Az. Time Alt. Az. Time Alt. Az.
05 Dec -1.9 16:39:15 10° NW 16:41:40 18° N 16:43:34 12° NE visible
05 Dec -1.1 18:15:40 10° NW 18:16:29 16° NW 18:16:29 16° NW visible
06 Dec -2.9 17:27:18 10° NW 17:30:12 34° NNE 17:30:12 34° NNE visible
07 Dec -2.5 16:38:56 10° NW 16:41:49 26° NNE 16:44:03 14° ENE visible
07 Dec -1.6 18:15:26 10° WNW 18:16:59 25° WNW 18:16:59 25° WNW visible
08 Dec -3.9 17:26:56 10° NW 17:30:18 78° NE 17:31:02 51° ESE visible
09 Dec -3.5 16:38:29 10° NW 16:41:46 48° NNE 16:45:02 10° ESE visible
09 Dec -1.4 18:15:38 10° W 18:18:17 22° SW 18:18:17 22° SW visible
10 Dec -2.3 17:26:47 10° WNW 17:29:56 37° SW 17:32:59 10° SSE visible
11 Dec -3.4 16:38:08 10° WNW 16:41:29 67° SW 16:44:49 10° SE visible
12 Dec -0.6 17:27:28 10° W 17:29:19 14° SW 17:31:09 10° SSW visible
13 Dec -1.1 16:38:11 10° W 16:40:57 24° SW 16:43:42 10° S visible
